Previsão horária em Abdukarim

Hoje, 18 Abril, Domingo

Tempo Temperatura Precipitação Vento Pressão Humidade
00:00 +16°C° 0.1 mm 3 m/s 699 mmHg 53%
01:00 +16°C° 0.1 mm 2 m/s 699 mmHg 55%
02:00 +15°C° 0.1 mm 2 m/s 699 mmHg 58%
03:00 +15°C° 0.1 mm 2 m/s 699 mmHg 59%
04:00 +15°C° 0.1 mm 2 m/s 699 mmHg 61%
05:00 +14°C° 0 mm 2 m/s 699 mmHg 62%
06:00 +13°C° 0.2 mm 3 m/s 700 mmHg 63%
07:00 +13°C° 0.2 mm 3 m/s 701 mmHg 64%
08:00 +14°C° 0.2 mm 3 m/s 701 mmHg 65%
09:00 +16°C° 0.2 mm 3 m/s 701 mmHg 59%
10:00 +16°C° 0.2 mm 2 m/s 702 mmHg 54%
11:00 +18°C° 0 mm 2 m/s 702 mmHg 46%
12:00 +19°C° 0 mm 2 m/s 702 mmHg 42%
13:00 +20°C° 0 mm 2 m/s 701 mmHg 39%
14:00 +20°C° 0 mm 2 m/s 701 mmHg 35%
15:00 +20°C° 0 mm 2 m/s 701 mmHg 37%
16:00 +20°C° 0 mm 2 m/s 701 mmHg 38%
17:00 +20°C° 0 mm 2 m/s 701 mmHg 40%
18:00 +19°C° 0 mm 2 m/s 701 mmHg 44%
19:00 +17°C° 0 mm 2 m/s 700 mmHg 47%
20:00 +16°C° 0 mm 2 m/s 700 mmHg 51%
21:00 +16°C° 0 mm 2 m/s 700 mmHg 51%
22:00 +15°C° 0 mm 2 m/s 700 mmHg 52%
23:00 +15°C° 0 mm 1 m/s 700 mmHg 52%

Amanhã, 19 Abril, Segunda-feira

Tempo Temperatura Precipitação Vento Pressão Humidade
00:00 +15°C° 0 mm 2 m/s 699 mmHg 52%
01:00 +14°C° 0 mm 2 m/s 699 mmHg 53%
02:00 +14°C° 0 mm 2 m/s 699 mmHg 53%
03:00 +14°C° 0 mm 2 m/s 698 mmHg 52%
04:00 +14°C° 0 mm 2 m/s 698 mmHg 52%
05:00 +13°C° 0 mm 2 m/s 698 mmHg 51%
06:00 +15°C° 0 mm 1 m/s 698 mmHg 48%
07:00 +16°C° 0 mm 1 m/s 698 mmHg 44%
08:00 +19°C° 0 mm 1 m/s 698 mmHg 41%
09:00 +20°C° 0 mm 1 m/s 698 mmHg 38%
10:00 +20°C° 0 mm 2 m/s 698 mmHg 35%
11:00 +23°C° 0 mm 2 m/s 698 mmHg 31%
12:00 +22°C° 0 mm 3 m/s 698 mmHg 30%
13:00 +24°C° 0 mm 3 m/s 697 mmHg 29%
14:00 +24°C° 0 mm 3 m/s 697 mmHg 29%
15:00 +24°C° 0 mm 3 m/s 697 mmHg 30%
16:00 +24°C° 0 mm 3 m/s 696 mmHg 30%
17:00 +24°C° 0 mm 3 m/s 696 mmHg 31%
18:00 +21°C° 0 mm 3 m/s 696 mmHg 35%
19:00 +20°C° 0 mm 2 m/s 696 mmHg 39%
20:00 +18°C° 0 mm 2 m/s 696 mmHg 43%
21:00 +18°C° 0 mm 2 m/s 695 mmHg 44%
22:00 +18°C° 0 mm 1 m/s 695 mmHg 45%
23:00 +18°C° 0 mm 1 m/s 695 mmHg 45%

Depois de amanhã, 20 Abril, Terça-feira

Tempo Temperatura Precipitação Vento Pressão Humidade
00:00 +18°C° 0 mm 1 m/s 695 mmHg 46%
01:00 +18°C° 0 mm 1 m/s 694 mmHg 46%
02:00 +18°C° 0 mm 1 m/s 694 mmHg 47%
03:00 +18°C° 0 mm 1 m/s 694 mmHg 47%
04:00 +16°C° 0 mm 2 m/s 694 mmHg 47%
05:00 +16°C° 0 mm 2 m/s 694 mmHg 47%
06:00 +17°C° 0 mm 2 m/s 695 mmHg 48%
07:00 +17°C° 0 mm 3 m/s 695 mmHg 49%
08:00 +18°C° 0 mm 3 m/s 696 mmHg 49%
09:00 +19°C° 0.1 mm 3 m/s 696 mmHg 45%
10:00 +20°C° 0.1 mm 3 m/s 696 mmHg 41%
11:00 +20°C° 0.1 mm 3 m/s 696 mmHg 38%
12:00 +21°C° 0 mm 3 m/s 696 mmHg 35%
13:00 +22°C° 0 mm 4 m/s 696 mmHg 32%
14:00 +23°C° 0 mm 4 m/s 695 mmHg 30%
15:00 +23°C° 0 mm 4 m/s 695 mmHg 32%
16:00 +23°C° 0 mm 4 m/s 695 mmHg 34%
17:00 +22°C° 0 mm 4 m/s 695 mmHg 36%
18:00 +21°C° 0 mm 4 m/s 694 mmHg 38%
19:00 +20°C° 0 mm 4 m/s 694 mmHg 41%
20:00 +18°C° 0 mm 4 m/s 694 mmHg 43%
21:00 +18°C° 0 mm 4 m/s 694 mmHg 43%
22:00 +17°C° 0 mm 5 m/s 693 mmHg 43%
23:00 +17°C° 0 mm 5 m/s 693 mmHg 43%

21 Abril, Quarta-feira

Tempo Temperatura Precipitação Vento Pressão Humidade
00:00 +17°C° 0.2 mm 4 m/s 693 mmHg 49%
01:00 +15°C° 0.2 mm 4 m/s 693 mmHg 56%
02:00 +13°C° 0.2 mm 3 m/s 694 mmHg 62%
03:00 +14°C° 0.2 mm 2 m/s 694 mmHg 65%
04:00 +13°C° 0.2 mm 2 m/s 694 mmHg 68%
05:00 +13°C° 0.2 mm 2 m/s 694 mmHg 71%
06:00 +13°C° 0.1 mm 2 m/s 695 mmHg 75%
07:00 +12°C° 0.1 mm 3 m/s 696 mmHg 79%
08:00 +12°C° 0.1 mm 3 m/s 696 mmHg 82%
09:00 +13°C° 0.4 mm 3 m/s 697 mmHg 77%
10:00 +13°C° 0.4 mm 3 m/s 697 mmHg 71%
11:00 +14°C° 0.4 mm 3 m/s 698 mmHg 66%
12:00 +14°C° 0.2 mm 4 m/s 698 mmHg 62%
13:00 +15°C° 0.2 mm 4 m/s 698 mmHg 59%
14:00 +17°C° 0.2 mm 4 m/s 698 mmHg 55%
15:00 +15°C° 0 mm 4 m/s 698 mmHg 54%
16:00 +15°C° 0 mm 5 m/s 698 mmHg 54%
17:00 +15°C° 0 mm 5 m/s 698 mmHg 53%
18:00 +13°C° 0 mm 4 m/s 698 mmHg 55%
19:00 +12°C° 0 mm 4 m/s 699 mmHg 57%
20:00 +11°C° 0 mm 4 m/s 699 mmHg 59%
21:00 +10°C° 0 mm 4 m/s 699 mmHg 58%
22:00 +9°C° 0 mm 3 m/s 699 mmHg 57%
23:00 +8°C° 0 mm 3 m/s 699 mmHg 56%

22 Abril, Quinta-feira

Tempo Temperatura Precipitação Vento Pressão Humidade
00:00 +8°C° 0 mm 3 m/s 699 mmHg 61%
01:00 +7°C° 0 mm 3 m/s 699 mmHg 66%
02:00 +5°C° 0 mm 3 m/s 699 mmHg 71%
03:00 +5°C° 0 mm 3 m/s 699 mmHg 76%
04:00 +5°C° 0 mm 3 m/s 699 mmHg 80%
05:00 +4°C° 0 mm 3 m/s 700 mmHg 85%
06:00 +5°C° 0 mm 3 m/s 700 mmHg 80%
07:00 +7°C° 0 mm 3 m/s 700 mmHg 74%
08:00 +8°C° 0 mm 3 m/s 700 mmHg 69%
09:00 +10°C° 0 mm 4 m/s 700 mmHg 63%
10:00 +11°C° 0 mm 4 m/s 701 mmHg 56%
11:00 +13°C° 0 mm 4 m/s 701 mmHg 50%
12:00 +14°C° 0 mm 4 m/s 701 mmHg 47%
13:00 +14°C° 0 mm 4 m/s 701 mmHg 45%
14:00 +15°C° 0 mm 5 m/s 701 mmHg 42%
15:00 +15°C° 0 mm 5 m/s 701 mmHg 42%
16:00 +15°C° 0 mm 5 m/s 701 mmHg 41%
17:00 +15°C° 0 mm 5 m/s 701 mmHg 41%
18:00 +13°C° 0 mm 4 m/s 701 mmHg 45%
19:00 +12°C° 0 mm 4 m/s 701 mmHg 49%
20:00 +10°C° 0 mm 3 m/s 701 mmHg 53%
21:00 +10°C° 0 mm 3 m/s 701 mmHg 55%
22:00 +9°C° 0 mm 3 m/s 701 mmHg 57%
23:00 +9°C° 0 mm 3 m/s 701 mmHg 59%

23 Abril, Sexta-feira

Tempo Temperatura Precipitação Vento Pressão Humidade
00:00 +9°C° 0 mm 3 m/s 701 mmHg 62%
01:00 +8°C° 0 mm 3 m/s 700 mmHg 66%
02:00 +8°C° 0 mm 2 m/s 700 mmHg 69%
03:00 +7°C° 0 mm 2 m/s 700 mmHg 68%
04:00 +7°C° 0 mm 2 m/s 700 mmHg 66%
05:00 +8°C° 0 mm 1 m/s 700 mmHg 65%
06:00 +10°C° 0 mm 1 m/s 700 mmHg 59%
07:00 +11°C° 0 mm 1 m/s 700 mmHg 53%
08:00 +13°C° 0 mm 1 m/s 701 mmHg 48%
09:00 +15°C° 0 mm 2 m/s 701 mmHg 43%
10:00 +17°C° 0 mm 2 m/s 701 mmHg 38%
11:00 +19°C° 0 mm 3 m/s 701 mmHg 34%
12:00 +20°C° 0 mm 3 m/s 701 mmHg 32%
13:00 +21°C° 0 mm 3 m/s 701 mmHg 31%
14:00 +22°C° 0 mm 3 m/s 701 mmHg 29%
15:00 +22°C° 0 mm 3 m/s 700 mmHg 30%
16:00 +21°C° 0 mm 3 m/s 700 mmHg 32%
17:00 +21°C° 0 mm 4 m/s 700 mmHg 33%
18:00 +19°C° 0 mm 3 m/s 700 mmHg 36%
19:00 +17°C° 0 mm 3 m/s 700 mmHg 39%
20:00 +14°C° 0 mm 3 m/s 699 mmHg 43%
21:00 +15°C° 0 mm 2 m/s 699 mmHg 43%
22:00 +14°C° 0 mm 2 m/s 699 mmHg 43%
23:00 +14°C° 0 mm 1 m/s 699 mmHg 42%
Mostrar mais